When you browse on this site, cookies collect data to enhance your experience and personalize the content and advertising you see.
Visit our Privacy Policy to learn more. By continuing to use the site, you agree to this use of cookies and data.
  • In Österreich
  • Länderverzeichnis
  • Für 7 Tage
  • Wassertemperatur
  • Wetterkarte
  • News
  • Widgets
  • user-avatar
    Anmelden

    Stündliche Wetter Amstetten

    Heute, 23 Oktober, Mittwoch

    Zeit Temperatur Niederschläge Wind Luftdruck Luftfeuchtigkeit
    00:00 +10°C° 0 mm 1 m/S 711 mmHg 95%
    01:00 +9°C° 0 mm 1 m/S 711 mmHg 95%
    02:00 +9°C° 0 mm 1 m/S 711 mmHg 96%
    03:00 +9°C° 0 mm 1 m/S 710 mmHg 96%
    04:00 +9°C° 0 mm 1 m/S 710 mmHg 96%
    05:00 +8°C° 0 mm 1 m/S 710 mmHg 96%
    06:00 +8°C° 0 mm 1 m/S 709 mmHg 97%
    07:00 +8°C° 0 mm 1 m/S 709 mmHg 97%
    08:00 +8°C° 0 mm 2 m/S 709 mmHg 94%
    09:00 +10°C° 0 mm 2 m/S 709 mmHg 90%
    10:00 +13°C° 0 mm 2 m/S 709 mmHg 87%
    11:00 +14°C° 0 mm 2 m/S 709 mmHg 84%
    12:00 +14°C° 0 mm 3 m/S 708 mmHg 80%
    13:00 +17°C° 0 mm 3 m/S 708 mmHg 77%
    14:00 +16°C° 0 mm 3 m/S 708 mmHg 80%
    15:00 +16°C° 0 mm 3 m/S 707 mmHg 82%
    16:00 +16°C° 0 mm 2 m/S 706 mmHg 85%
    17:00 +14°C° 0 mm 2 m/S 706 mmHg 89%
    18:00 +13°C° 0 mm 2 m/S 706 mmHg 92%
    19:00 +12°C° 0 mm 2 m/S 706 mmHg 96%
    20:00 +10°C° 0 mm 2 m/S 706 mmHg 95%
    21:00 +10°C° 0 mm 2 m/S 705 mmHg 95%
    22:00 +10°C° 0 mm 2 m/S 705 mmHg 95%
    23:00 +10°C° 0 mm 2 m/S 705 mmHg 95%

    Morgen, 24 Oktober, Donnerstag

    Zeit Temperatur Niederschläge Wind Luftdruck Luftfeuchtigkeit
    00:00 +9°C° 0 mm 2 m/S 704 mmHg 94%
    01:00 +9°C° 0 mm 2 m/S 704 mmHg 94%
    02:00 +9°C° 0 mm 2 m/S 704 mmHg 93%
    03:00 +10°C° 0 mm 1 m/S 704 mmHg 91%
    04:00 +10°C° 0 mm 1 m/S 704 mmHg 89%
    05:00 +10°C° 0 mm 1 m/S 704 mmHg 87%
    06:00 +10°C° 0 mm 1 m/S 704 mmHg 85%
    07:00 +9°C° 0 mm 2 m/S 704 mmHg 83%
    08:00 +12°C° 0 mm 1 m/S 705 mmHg 82%
    09:00 +13°C° 0 mm 1 m/S 705 mmHg 80%
    10:00 +14°C° 0 mm 1 m/S 705 mmHg 78%
    11:00 +15°C° 0 mm 1 m/S 706 mmHg 76%
    12:00 +16°C° 0 mm 2 m/S 706 mmHg 73%
    13:00 +18°C° 0 mm 2 m/S 706 mmHg 70%
    14:00 +17°C° 0 mm 2 m/S 706 mmHg 74%
    15:00 +16°C° 0 mm 2 m/S 706 mmHg 78%
    16:00 +16°C° 0 mm 3 m/S 707 mmHg 83%
    17:00 +14°C° 0 mm 2 m/S 707 mmHg 86%
    18:00 +13°C° 0 mm 1 m/S 707 mmHg 89%
    19:00 +11°C° 0 mm 0 m/S 707 mmHg 93%
    20:00 +12°C° 0 mm 1 m/S 708 mmHg 92%
    21:00 +12°C° 0 mm 1 m/S 709 mmHg 91%
    22:00 +12°C° 0 mm 1 m/S 709 mmHg 91%
    23:00 +12°C° 0 mm 1 m/S 710 mmHg 89%

    übermorgen, 25 Oktober, Freitag

    Zeit Temperatur Niederschläge Wind Luftdruck Luftfeuchtigkeit
    00:00 +13°C° 0 mm 1 m/S 710 mmHg 88%
    01:00 +13°C° 0 mm 1 m/S 710 mmHg 86%
    02:00 +13°C° 0.1 mm 1 m/S 711 mmHg 87%
    03:00 +12°C° 0.1 mm 1 m/S 711 mmHg 88%
    04:00 +12°C° 0.1 mm 1 m/S 711 mmHg 88%
    05:00 +12°C° 0.1 mm 1 m/S 712 mmHg 89%
    06:00 +12°C° 0.1 mm 1 m/S 712 mmHg 90%
    07:00 +11°C° 0.1 mm 1 m/S 713 mmHg 91%
    08:00 +12°C° 0 mm 1 m/S 713 mmHg 89%
    09:00 +12°C° 0 mm 1 m/S 714 mmHg 87%
    10:00 +12°C° 0 mm 0 m/S 714 mmHg 85%
    11:00 +13°C° 0 mm 0 m/S 714 mmHg 80%
    12:00 +14°C° 0 mm 0 m/S 714 mmHg 75%
    13:00 +15°C° 0 mm 0 m/S 714 mmHg 70%
    14:00 +15°C° 0 mm 1 m/S 713 mmHg 73%
    15:00 +15°C° 0 mm 1 m/S 713 mmHg 75%
    16:00 +15°C° 0 mm 1 m/S 712 mmHg 77%
    17:00 +14°C° 0 mm 1 m/S 712 mmHg 81%
    18:00 +13°C° 0 mm 2 m/S 712 mmHg 85%
    19:00 +12°C° 0 mm 2 m/S 712 mmHg 89%
    20:00 +10°C° 0 mm 2 m/S 712 mmHg 91%
    21:00 +11°C° 0 mm 1 m/S 712 mmHg 93%
    22:00 +10°C° 0 mm 1 m/S 712 mmHg 95%
    23:00 +10°C° 0 mm 1 m/S 712 mmHg 95%

    26 Oktober, Samstag

    Zeit Temperatur Niederschläge Wind Luftdruck Luftfeuchtigkeit
    00:00 +10°C° 0 mm 1 m/S 711 mmHg 95%
    01:00 +9°C° 0 mm 1 m/S 711 mmHg 96%
    02:00 +9°C° 0 mm 1 m/S 711 mmHg 96%
    03:00 +9°C° 0 mm 1 m/S 711 mmHg 96%
    04:00 +8°C° 0 mm 2 m/S 710 mmHg 96%
    05:00 +8°C° 0 mm 2 m/S 710 mmHg 95%
    06:00 +9°C° 0 mm 1 m/S 710 mmHg 95%
    07:00 +9°C° 0 mm 1 m/S 710 mmHg 94%
    08:00 +10°C° 0 mm 2 m/S 711 mmHg 89%
    09:00 +12°C° 0 mm 2 m/S 711 mmHg 83%
    10:00 +14°C° 0 mm 2 m/S 712 mmHg 77%
    11:00 +15°C° 0 mm 2 m/S 712 mmHg 73%
    12:00 +17°C° 0 mm 2 m/S 712 mmHg 68%
    13:00 +18°C° 0 mm 2 m/S 711 mmHg 63%
    14:00 +17°C° 0 mm 2 m/S 711 mmHg 68%
    15:00 +17°C° 0 mm 2 m/S 711 mmHg 72%
    16:00 +16°C° 0 mm 1 m/S 711 mmHg 77%
    17:00 +15°C° 0 mm 2 m/S 711 mmHg 80%
    18:00 +13°C° 0 mm 2 m/S 711 mmHg 82%
    19:00 +12°C° 0 mm 2 m/S 711 mmHg 85%
    20:00 +12°C° 0 mm 2 m/S 711 mmHg 82%
    21:00 +10°C° 0 mm 2 m/S 711 mmHg 79%
    22:00 +10°C° 0 mm 2 m/S 711 mmHg 77%
    23:00 +10°C° 0 mm 2 m/S 711 mmHg 76%

    27 Oktober, Sonntag

    Zeit Temperatur Niederschläge Wind Luftdruck Luftfeuchtigkeit
    00:00 +9°C° 0 mm 2 m/S 711 mmHg 75%
    01:00 +9°C° 0 mm 2 m/S 711 mmHg 74%
    02:00 +10°C° 0 mm 1 m/S 711 mmHg 74%
    03:00 +9°C° 0 mm 1 m/S 711 mmHg 73%
    04:00 +9°C° 0 mm 1 m/S 711 mmHg 73%
    05:00 +9°C° 0 mm 1 m/S 712 mmHg 73%
    06:00 +9°C° 0 mm 1 m/S 712 mmHg 74%
    07:00 +9°C° 0 mm 1 m/S 712 mmHg 74%
    08:00 +10°C° 0 mm 1 m/S 712 mmHg 73%
    09:00 +12°C° 0 mm 1 m/S 713 mmHg 72%
    10:00 +13°C° 0 mm 1 m/S 713 mmHg 71%
    11:00 +13°C° 0 mm 1 m/S 713 mmHg 71%
    12:00 +14°C° 0 mm 1 m/S 713 mmHg 71%
    13:00 +14°C° 0 mm 1 m/S 713 mmHg 71%
    14:00 +14°C° 0 mm 1 m/S 713 mmHg 74%
    15:00 +14°C° 0 mm 1 m/S 713 mmHg 77%
    16:00 +13°C° 0 mm 0 m/S 713 mmHg 80%
    17:00 +12°C° 0 mm 0 m/S 713 mmHg 83%
    18:00 +11°C° 0 mm 0 m/S 713 mmHg 86%
    19:00 +10°C° 0 mm 0 m/S 713 mmHg 89%
    20:00 +9°C° 0 mm 0 m/S 713 mmHg 90%
    21:00 +10°C° 0 mm 1 m/S 713 mmHg 91%
    22:00 +10°C° 0 mm 1 m/S 713 mmHg 93%
    23:00 +10°C° 0 mm 1 m/S 713 mmHg 93%

    28 Oktober, Montag

    Zeit Temperatur Niederschläge Wind Luftdruck Luftfeuchtigkeit
    00:00 +9°C° 0 mm 1 m/S 713 mmHg 93%
    01:00 +9°C° 0 mm 1 m/S 713 mmHg 93%
    02:00 +9°C° 0 mm 1 m/S 712 mmHg 93%
    03:00 +9°C° 0 mm 1 m/S 712 mmHg 93%
    04:00 +9°C° 0 mm 1 m/S 712 mmHg 93%
    05:00 +9°C° 0 mm 1 m/S 712 mmHg 93%
    06:00 +9°C° 0 mm 1 m/S 712 mmHg 93%
    07:00 +8°C° 0 mm 1 m/S 712 mmHg 93%
    08:00 +8°C° 0.3 mm 1 m/S 712 mmHg 93%
    09:00 +8°C° 0.3 mm 1 m/S 712 mmHg 94%
    10:00 +8°C° 0.3 mm 1 m/S 712 mmHg 95%
    11:00 +8°C° 0.3 mm 1 m/S 712 mmHg 95%
    12:00 +8°C° 0.3 mm 1 m/S 712 mmHg 96%
    13:00 +8°C° 0.3 mm 1 m/S 712 mmHg 96%
    14:00 +8°C° 0.1 mm 1 m/S 712 mmHg 96%
    15:00 +7°C° 0.1 mm 2 m/S 712 mmHg 96%
    16:00 +6°C° 0.1 mm 2 m/S 712 mmHg 96%
    17:00 +6°C° 0 mm 2 m/S 712 mmHg 96%
    18:00 +6°C° 0 mm 2 m/S 712 mmHg 95%
    19:00 +6°C° 0 mm 2 m/S 712 mmHg 95%
    20:00 +5°C° 0 mm 2 m/S 712 mmHg 95%
    21:00 +5°C° 0 mm 2 m/S 713 mmHg 94%
    22:00 +5°C° 0 mm 2 m/S 713 mmHg 94%
    23:00 +5°C° 0 mm 2 m/S 713 mmHg 93%

    29 Oktober, Dienstag

    Zeit Temperatur Niederschläge Wind Luftdruck Luftfeuchtigkeit
    00:00 +5°C° 0 mm 2 m/S 713 mmHg 92%
    01:00 +5°C° 0 mm 2 m/S 712 mmHg 91%
    02:00 +5°C° 0 mm 2 m/S 712 mmHg 90%
    03:00 +5°C° 0 mm 2 m/S 712 mmHg 90%
    04:00 +5°C° 0 mm 2 m/S 712 mmHg 90%
    05:00 +4°C° 0 mm 2 m/S 713 mmHg 89%
    06:00 +4°C° 0 mm 2 m/S 713 mmHg 89%
    07:00 +4°C° 0 mm 2 m/S 713 mmHg 89%
    08:00 +4°C° 0 mm 2 m/S 713 mmHg 87%
    09:00 +5°C° 0 mm 2 m/S 713 mmHg 86%
    10:00 +5°C° 0 mm 2 m/S 713 mmHg 85%
    11:00 +5°C° 0 mm 3 m/S 714 mmHg 84%
    12:00 +5°C° 0 mm 3 m/S 714 mmHg 83%
    13:00 +6°C° 0 mm 4 m/S 714 mmHg 83%
    14:00 +6°C° 0 mm 4 m/S 714 mmHg 83%
    15:00 +6°C° 0 mm 4 m/S 714 mmHg 83%
    16:00 +6°C° 0 mm 4 m/S 714 mmHg 82%
    17:00 +5°C° 0 mm 4 m/S 715 mmHg 83%
    18:00 +5°C° 0 mm 4 m/S 715 mmHg 83%
    19:00 +4°C° 0 mm 4 m/S 715 mmHg 83%
    20:00 +3°C° 0 mm 4 m/S 715 mmHg 83%
    21:00 +2°C° 0 mm 5 m/S 715 mmHg 83%
    22:00 +1°C° 0 mm 5 m/S 715 mmHg 82%
    23:00 +1°C° 0 mm 5 m/S 715 mmHg 82%
    Mehr zeigen